TimePST,TemperatureF,Dew PointF,Humidity,Sea Level PressureIn,VisibilityMPH,Wind Direction,Wind SpeedMPH,Gust SpeedMPH,PrecipitationIn,Events,Conditions,WindDirDegrees,DateUTC
12:53 AM,62.1,55.0,78,30.01,6.0,East,3.5,-,N/A,,Haze,80,2012-12-06 08:53:00
1:16 AM,62.6,55.4,77,30.01,7.0,Calm,Calm,-,N/A,,Overcast,0,2012-12-06 09:16:00
1:53 AM,63.0,54.0,72,30.00,8.0,Calm,Calm,-,N/A,,Overcast,0,2012-12-06 09:53:00
2:53 AM,62.1,55.0,78,29.99,7.0,East,3.5,-,N/A,,Overcast,90,2012-12-06 10:53:00
3:53 AM,62.1,55.0,78,29.97,6.0,ESE,3.5,-,N/A,,Haze,110,2012-12-06 11:53:00
4:53 AM,61.0,55.0,81,29.96,7.0,East,3.5,-,N/A,,Overcast,90,2012-12-06 12:53:00
5:53 AM,62.1,55.0,78,29.96,6.0,Calm,Calm,-,N/A,,Haze,0,2012-12-06 13:53:00
6:31 AM,62.6,53.6,72,29.96,6.0,Calm,Calm,-,N/A,,Haze,0,2012-12-06 14:31:00
6:53 AM,62.1,54.0,75,29.96,6.0,Calm,Calm,-,N/A,,Haze,0,2012-12-06 14:53:00
7:53 AM,63.0,53.1,70,29.97,6.0,Calm,Calm,-,N/A,,Haze,0,2012-12-06 15:53:00
8:53 AM,63.0,53.1,70,29.99,7.0,North,3.5,-,N/A,,Overcast,360,2012-12-06 16:53:00
9:53 AM,64.0,53.1,67,29.99,8.0,Calm,Calm,-,N/A,,Overcast,0,2012-12-06 17:53:00
10:53 AM,64.9,53.1,65,29.97,6.0,Calm,Calm,-,N/A,,Haze,0,2012-12-06 18:53:00
11:53 AM,68.0,54.0,61,29.94,6.0,Calm,Calm,-,N/A,,Haze,0,2012-12-06 19:53:00
12:17 PM,66.2,53.6,64,29.92,6.0,Calm,Calm,-,N/A,,Haze,0,2012-12-06 20:17:00
12:53 PM,68.0,53.1,59,29.91,5.0,Variable,3.5,-,N/A,,Haze,0,2012-12-06 20:53:00
1:53 PM,70.0,53.1,55,29.87,5.0,Calm,Calm,-,N/A,,Haze,0,2012-12-06 21:53:00
2:53 PM,71.1,53.1,53,29.87,4.0,WNW,3.5,-,N/A,,Haze,290,2012-12-06 22:53:00
3:53 PM,66.9,55.9,68,29.87,6.0,Variable,5.8,-,N/A,,Haze,0,2012-12-06 23:53:00
4:53 PM,64.9,55.9,73,29.87,6.0,Calm,Calm,-,N/A,,Haze,0,2012-12-07 00:53:00
5:53 PM,63.0,57.0,81,29.88,7.0,Calm,Calm,-,N/A,,Clear,0,2012-12-07 01:53:00
6:53 PM,62.1,55.9,80,29.90,5.0,Calm,Calm,-,N/A,,Haze,0,2012-12-07 02:53:00
7:53 PM,62.1,55.9,80,29.91,4.0,Calm,Calm,-,N/A,,Haze,0,2012-12-07 03:53:00
8:15 PM,60.8,55.4,82,29.92,4.0,Calm,Calm,-,N/A,,Haze,0,2012-12-07 04:15:00
8:53 PM,60.1,55.0,83,29.92,4.0,Calm,Calm,-,N/A,,Haze,0,2012-12-07 04:53:00
9:53 PM,59.0,54.0,83,29.92,4.0,Calm,Calm,-,N/A,,Haze,0,2012-12-07 05:53:00
10:14 PM,59.0,53.6,82,29.93,4.0,Calm,Calm,-,N/A,,Haze,0,2012-12-07 06:14:00
10:21 PM,59.0,53.6,82,29.93,4.0,Calm,Calm,-,N/A,,Haze,0,2012-12-07 06:21:00
10:31 PM,57.2,53.6,88,29.93,4.0,Calm,Calm,-,N/A,,Haze,0,2012-12-07 06:31:00
10:48 PM,59.0,53.6,82,29.92,4.0,Calm,Calm,-,N/A,,Haze,0,2012-12-07 06:48:00
10:53 PM,59.0,54.0,83,29.92,4.0,Calm,Calm,-,N/A,,Haze,0,2012-12-07 06:53:00
11:53 PM,59.0,54.0,83,29.93,4.0,Calm,Calm,-,N/A,,Haze,0,2012-12-07 07:53:00